CW4354 Weather Reports


time (UTC)temp
C
wind
direction
speed
KPH
gust
KPH
rain 1hr
cm
rain 24hr
cm
rain mn
cm
humidity
%
barometer
mb
20260504001556 11 0 0.0 0.0 0.00 0.00 0.00 50 1011.5
20260504000057 12 0 0.0 0.0 0.00 0.00 0.00 45 1011.3
20260503234544 13 0 0.0 0.0 0.00 0.00 0.00 41 1011.2
20260503233121 14 0 0.0 0.0 0.00 0.00 0.00 40 1011.1
20260503231553 14 0 0.0 1.6 0.00 0.00 0.00 34 1011.1
20260503230104 15 0 0.0 0.0 0.00 0.00 0.00 38 1011.1
20260503224550 15 0 0.0 4.8 0.00 0.00 0.00 33 1010.9
20260503223107 15 0 0.0 17.7 0.00 0.00 0.00 33 1010.8
20260503221553 16 0 0.0 14.5 0.00 0.00 0.00 34 1010.8
20260503220042 16 0 0.0 6.4 0.00 0.00 0.00 33 1010.7
20260503214555 16 0 0.0 12.9 0.00 0.00 0.00 34 1010.7
20260503213050 16 0 0.0 14.5 0.00 0.00 0.00 30 1010.7
20260503211550 16 0 0.0 1.6 0.00 0.00 0.00 32 1010.7
20260503210045 16 0 0.0 6.4 0.00 0.00 0.00 33 1010.8
20260503204550 16 223 0.0 19.3 0.00 0.00 0.00 30 1010.8
20260503203049 16 0 0.0 4.8 0.00 0.00 0.00 34 1010.9
20260503201550 15 0 0.0 6.4 0.00 0.00 0.00 32 1011.1
20260503200048 15 0 0.0 6.4 0.00 0.00 0.00 35 1011.1
20260503194551 15 0 1.6 6.4 0.00 0.00 0.00 33 1011.2
20260503193050 15 298 0.0 19.3 0.00 0.00 0.00 31 1011.2
20260503191540 15 0 0.0 6.4 0.00 0.00 0.00 34 1011.4
20260503190050 14 0 0.0 4.8 0.00 0.00 0.00 35 1011.5
20260503184548 14 0 1.6 11.3 0.00 0.00 0.00 32 1011.6
20260503183052 14 213 0.0 6.4 0.00 0.00 0.00 36 1011.9
20260503181604 14 0 0.0 8.0 0.00 0.00 0.00 38 1012.0
20260503180053 13 0 0.0 8.0 0.00 0.00 0.00 34 1011.8
20260503174553 13 0 0.0 8.0 0.00 0.00 0.00 39 1012.0
20260503173047 12 278 0.0 11.3 0.00 0.00 0.00 45 1012.2
20260503171550 12 0 0.0 4.8 0.00 0.00 0.00 44 1012.3
20260503081550 6 0 0.0 3.2 0.00 0.03 0.00 61 1011.1
20260503071550 6 0 0.0 0.0 0.00 0.03 0.00 63 1010.8
20260503054543 8 0 0.0 8.0 0.00 0.03 0.00 57 1011.0
20260503053051 8 0 0.0 3.2 0.00 0.03 0.00 58 1011.2
20260503051548 8 0 0.0 0.0 0.00 0.03 0.00 58 1011.4
20260503050050 8 0 0.0 3.2 0.00 0.03 0.00 60 1011.4
20260503044602 8 0 0.0 0.0 0.00 0.03 0.00 59 1011.5
20260503043057 8 0 0.0 3.2 0.00 0.03 0.00 61 1011.6
20260503041608 8 0 0.0 0.0 0.00 0.03 0.00 62 1011.7
20260503040053 8 0 0.0 0.0 0.00 0.03 0.00 57 1011.9
20260503034547 8 0 0.0 0.0 0.00 0.03 0.03 57 1011.8
20260503033059 8 0 0.0 0.0 0.00 0.03 0.03 57 1011.7
20260503031549 8 0 0.0 0.0 0.00 0.03 0.03 55 1011.8
20260503030041 8 0 0.0 0.0 0.00 0.03 0.03 60 1011.8
20260503024542 7 0 0.0 0.0 0.00 0.03 0.03 62 1011.8
20260503023053 8 0 0.0 0.0 0.00 0.03 0.03 62 1011.8
20260503021550 8 0 0.0 0.0 0.00 0.03 0.03 60 1011.8
20260503020051 8 0 0.0 3.2 0.00 0.03 0.03 61 1011.7
20260503014548 9 0 0.0 0.0 0.00 0.03 0.03 60 1011.8
20260503013051 10 0 0.0 0.0 0.00 0.03 0.03 59 1011.8
20260503011553 10 0 0.0 0.0 0.00 0.03 0.03 57 1011.8
20260503010048 10 0 0.0 0.0 0.00 0.03 0.03 58 1011.5
20260503004551 10 0 0.0 0.0 0.00 0.03 0.03 58 1011.4
20260503003055 11 0 0.0 0.0 0.00 0.03 0.03 53 1011.1